User: anonymous   Login
Location: Unspecified
(0.0000°N, 0.0000°E)
Time: 15:49:09
(UTC+00:00)
Language:

AO-73 - Orbit

View from above orbital plane
View from above orbital plane
View from above satellite
View from above satellite

Ground track
Ground track

The orbit data is extracted from the following two-line orbital elements,

1 39444U 13066AE  18197.95635490 +.00000209 +00000-0 +32110-4 0  9999
2 39444 097.5860 226.5655 0059486 053.9655 306.7051 14.81739310249472
Epoch (UTC): 16 July 2018 22:57:09
Eccentricity: 0.0059486
inclination: 97.5860°
perigee height: 582 km
apogee height: 665 km
right ascension of ascending node: 226.5655°
argument of perigee: 53.9655°
revolutions per day: 14.81739310
mean anomaly at epoch: 306.7051°
orbit number at epoch: 24947

The dashed part of the orbit path shows where the satellite is in the earth's shadow,  

DLR